Tracking 29790 objects as of 12-Oct-2024
HD Live streaming from Space Station
objects crossing your sky now

RADCAL

Track RADCAL now!
10-day predictions
RADCAL is classified as:


NORAD ID: 22698
Int'l Code: 1993-041A
Perigee: 754.8 km
Apogee: 883.9 km
Inclination: 89.5 °
Period: 101.1 minutes
Semi major axis: 7190 km
RCS: 0.589 m2 (medium)
Launch date: June 25, 1993
Source: United States (US)
Launch site: AIR FORCE WESTERN TEST RANGE (AFWTR)

This spacecraft was used to help calibrate radar target cross section data.
Your satellite tracking list
Your tracking list is empty




NASA's NSSDC Master Catalog

Two Line Element Set (TLE):
1 22698U 93041A   24285.48749840  .00000764  00000-0  31439-3 0  9999
2 22698  89.4938  95.6603 0089751  35.3366 325.3729 14.23890251624856
Source of the keplerian elements: AFSPC